Location: Hurecourt
(47.9030°N, 6.0653°E)
Time: 04:19:30
(UTC+00:00)

Meteor 1-11 Rocket - Pass Details

Date: 14 July 2020
Orbit: 831 x 915 km, 81.2° (Epoch: 06 August)

Event Time Altitude Azimuth Distance (km) Brightness Sun altitude
Exits shadow 02:04:16 17° 194° (SSW) 1,979 5.1 -13.5°
Maximum altitude 02:08:35 83° 280° (W) 845 3.7 -13.1°
Drops below altitude 10° 02:14:09 10° 10° (N) 2,454 7.2 -12.5°
Sets 02:16:34 0° 12° (NNE) 3,397 8.1 -12.3°
